Weather in Shilega

Russia / Arkhangel'skaya Oblast'     64°01′50″N   44°06′27″E
temp.,
°C
wind,
m/s
gust,
m/s
humid.,
%
clouds,
%
prec.,
mm/h
press.,
hPa
HPBL,
m
7 may, fri
fri700:00+2e51282100 0.5 1004513
03:00+3ese61484100 1.1 1000594
06:00+4se51493100 3.0 999540
09:00+9sw4873100 4.1 10001196
12:00+11ssw476498 0.3 10021274
15:00+11ssw3765100 1.1 10031443
18:00+10ssw2567100 0.4 1004576
21:00+7sw2387100 1.1 100560
8 may, sat
sat800:00+5wsw269592 0.2 1006128
03:00+4wsw2294100 0.2 100929
06:00+6sw278653 0.0 1010345
09:00+9sw3660100 0.1 10121418
12:00+11s4753100 0.0 10121719
15:00+13sse4849100 0.0 10111769
18:00+14sse51146100 0.0 10101802
21:00+11sse3955100 0.1 1010350
9 may, sun
sun900:00+9ssw3870100 0.3 1009315
03:00+8sse51179100 0.6 10081237
06:00+8sse4888100 1.1 1008988
09:00+8s2692100 2.3 1008458
12:00+8s2489100 0.4 1009346
15:00+7nw3590100 0.6 1010413
18:00+5nw3692100 2.1 1012758
21:00+5nw3789100 4.4 1014658
10 may, mon
mon1000:00+3w278373 0.1 1016229
03:00+1w25820 0.1 101999
06:00+4wsw25755 0.0 1020186
09:00+9sw465693 0.0 1022890
12:00+12sw5841100 0.0 10222300
15:00+12sw5847100 0.1 10221825
18:00+12wsw485187 0.0 10231593
21:00+10ssw266599 0.0 1023165
11 may, tue
tue1100:00+9ssw2773100 0.0 1022286
03:00+8sw388398 0.0 1023563
06:00+8s41193100 0.8 1021527
09:00+12sw51384100 0.9 1020887
12:00+12wsw41185100 0.3 1021900
15:00+16w397299 0.3 1021895
18:00+19wsw3958100 0.0 1021650
21:00+15wsw4117122 0.0 1021329